Ahmedabad, India

3:25 AM IST on May 27, 2017 (GMT +0530)
Ahmedabad

Weather History for VAAH - April, 2013

Change the Weather History Date:

Saturday, April 6, 2013

  Actual Average Record
Temperature  
Mean Temperature 86 °F -  
Max Temperature 104 °F 100 °F 111 °F (1998)
Min Temperature 68 °F 75 °F 66 °F (1997)
Cooling Degree Days 21    
Growing Degree Days 36 (Base 50)    
Moisture  
Dew Point 48 °F    
Average Humidity 27    
Maximum Humidity 47    
Minimum Humidity 6    
Precipitation  
Precipitation 0.00 in 0.01 in - ()
Sea Level Pressure  
Sea Level Pressure 29.72 in    
Wind  
Wind Speed 3 mph ()    
Max Wind Speed 10 mph    
Max Gust Speed -    
Visibility 2.6 miles    
Events      
Averages and records for this station are not official NWS values.
T = Trace of Precipitation, MM = Missing Value Source: Averaged Metar Reports

Daily Weather History Graph

Daily Weather History Graph

Search for Another Location

Airport or City:

Trip Planner

Search our weather history database for the weather conditions in past years. The results will help you decide how hot, cold, wet, or windy it might be!

Date:

Astronomy

Apr. 06, 2013 Rise Set
Actual Time 6:27 AM IST 6:56 PM IST
Civil Twilight 6:04 AM IST 7:19 PM IST
Nautical Twilight 5:38 AM IST 7:46 PM IST
Astronomical Twilight 5:11 AM IST 8:13 PM IST
Moon 3:27 AM IST (4/6) 3:21 PM IST (4/6)
Length of Visible Light 13h 15m
Length of Day
12h 29m
Waning Crescent, 18% of the Moon is Illuminated
Apr 6
Waning Crescent
Apr 10
New
Apr 18
First Quarter
Apr 26
Full
May 2
Last Quarter

Hourly Weather History & Observations

Time (IST) Temp. Heat Index Dew Point Humidity Pressure Visibility Wind Dir Wind Speed Gust Speed Precip Events Conditions
12:10 AM 80.6 °F - 51.8 °F 37% 29.74 in 2.5 mi NNE 2.3 mph - N/A   Smoke
1:10 AM 77.0 °F - 51.8 °F 41% 29.74 in 2.5 mi NNE 3.5 mph - N/A   Smoke
1:40 AM 77.0 °F - 51.8 °F 41% 29.74 in 2.5 mi NNE 2.3 mph - N/A   Smoke
2:30 AM 73 °F - 51 °F 35% 29.73 in 2 mi Calm Calm - -   Smoke
3:40 AM 75.2 °F - 51.8 °F 44% 29.71 in 2.5 mi Calm Calm - N/A   Smoke
4:10 AM 75.2 °F - 51.8 °F 44% 29.71 in 2.5 mi Calm Calm - N/A   Smoke
4:40 AM 75.2 °F - 51.8 °F 44% 29.71 in 2.5 mi Calm Calm - N/A   Smoke
5:10 AM 75.2 °F - 51.8 °F 44% 29.71 in 2.5 mi West 3.5 mph - N/A   Smoke
5:30 AM 71 °F - 47 °F 31% 29.74 in 2 mi WNW 3.5 mph - -   Smoke
5:40 AM 73.4 °F - 51.8 °F 47% 29.74 in 2.5 mi West 3.5 mph - N/A   Smoke
6:10 AM 73.4 °F - 51.8 °F 47% 29.74 in 2.5 mi West 4.6 mph - N/A   Smoke
7:10 AM 75.2 °F - 51.8 °F 44% 29.77 in 1.9 mi West 3.5 mph - N/A   Smoke
7:40 AM 77.0 °F - 46.4 °F 34% 29.77 in 1.9 mi Calm Calm - N/A   Smoke
8:10 AM 80.6 °F - 44.6 °F 28% 29.80 in 1.9 mi West 2.3 mph - N/A   Smoke
8:30 AM 81 °F - 47 °F 20% 29.81 in 2 mi Calm Calm - -  
10:10 AM 91.4 °F 89.1 °F 53.6 °F 28% 29.83 in 2.8 mi NW 4.6 mph - N/A   Smoke
11:30 AM 96 °F - 42 °F 9% 29.81 in 2 mi NW 4.6 mph - -  
2:30 PM 101 °F - 40 °F 6% 29.73 in 2 mi NW 3.5 mph - -  
3:10 PM 104.0 °F - 42.8 °F 12% 29.68 in 3.7 mi East 9.2 mph - N/A   Unknown
3:40 PM 104.0 °F - 44.6 °F 13% 29.65 in 3.7 mi East 9.2 mph - N/A   Unknown
4:10 PM 104.0 °F - 46.4 °F 14% 29.65 in 3.7 mi ESE 8.1 mph - N/A   Unknown
4:40 PM 104.0 °F - 46.4 °F 14% 29.65 in 3.7 mi East 10.4 mph - N/A   Unknown
5:10 PM 104.0 °F - 41.0 °F 12% 29.65 in 3.7 mi East 6.9 mph - N/A   Unknown
5:30 PM 101 °F - 41 °F 7% 29.66 in 2 mi West 3.5 mph - -  
5:40 PM 102.2 °F - 41.0 °F 12% 29.65 in 3.7 mi East 10.4 mph - N/A   Unknown
6:10 PM 100.4 °F - 44.6 °F 15% 29.65 in 3.7 mi NW 8.1 mph - N/A   Unknown
7:40 PM 96.8 °F - 42.8 °F 16% 29.68 in 2.5 mi WNW 6.9 mph - N/A   Smoke
8:10 PM 93.2 °F - 42.8 °F 17% 29.68 in 2.5 mi NNW 6.9 mph - N/A   Smoke
8:30 PM 85 °F - 54 °F 24% 29.70 in 2 mi Calm Calm - -  
8:40 PM 87.8 °F - 48.2 °F 25% 29.68 in 2.5 mi NNW 3.5 mph - N/A   Smoke
9:10 PM 86.0 °F - 51.8 °F 31% 29.71 in 2.5 mi WNW 3.5 mph - N/A   Smoke
10:10 PM 86.0 °F - 51.8 °F 31% 29.71 in 2.5 mi Variable 2.3 mph - N/A   Smoke
10:40 PM 86.0 °F - 51.8 °F 31% 29.71 in 2.5 mi Variable 2.3 mph - N/A   Smoke
11:10 PM 86.0 °F - 51.8 °F 31% 29.71 in 2.5 mi Variable 2.3 mph - N/A   Smoke
11:30 PM 80 °F - 56 °F 32% 29.73 in 2 mi Calm Calm - -  
11:40 PM - - - N/A% - - North - - N/A   Unknown